Regional Weather Roundup
Issued by NWS

Home | Current Version | Previous Version | Graphics & Text | Print | Product List | Glossary On
Versions: 1 2 3 4 5 6 7 8 9 10 11 12 13 14 15 16 17 18 19 20 21 22 23 24 25 26 27 28 29 30 31 32 33 34 35 36 37 38 39 40 41 42 43 44 45 46 47 48 49 50
000
ASUS43 KLMK 201102
RWRKY
KENTUCKY REGIONAL WEATHER ROUNDUP
NATIONAL WEATHER SERVICE LOUISVILLE KY
600 AM EST MON FEB 20 2017

NOTE "FAIR" INDICATES FEW OR NO CLOUDS BELOW 12,000 FEET
WITH NO SIGNIFICANT WEATHER AND/OR OBSTRUCTIONS TO VISIBILITY.

KYZ001>023-026-027-061>063-070>075-201200-
WESTERN AND SOUTH CENTRAL KENTUCKY

CITY           SKY/WX    TMP DP  RH WIND       PRES   REMARKS
PADUCAH        MOCLDY    46  44  93 SE7       30.09F FOG
HENDERSON        N/A     43  39  87 CALM      30.15R VSB 3/4
OWENSBORO      CLEAR     41  41 100 CALM      30.17R FOG
HOPKINSVILLE   CLOUDY    48  48 100 E6        30.14R
BOWLING GREEN  FOG       40  39  97 CALM      30.19R VSB 1/4
GLASGOW        NOT AVBL
$$

KYZ024-025-028>034-038-045-046-053-201200-
NORTH CENTRAL KENTUCKY

CITY           SKY/WX    TMP DP  RH WIND       PRES   REMARKS
LOUISVILLE/SDF FOG       41  39  93 CALM      30.19R VSB 1/8
LOUISVILLE/LOU FOG       38  37  97 CALM      30.20R VSB 1/4
FORT KNOX      FOG       37  37 100 CALM      30.17R VSB 1/4
$$

KYZ035>037-039>044-047>052-055>060-089>105-201200-
NORTHEAST KENTUCKY

CITY           SKY/WX    TMP DP  RH WIND       PRES   REMARKS
LEXINGTON      CLEAR     42  40  92 E5        30.19S FOG
COVINGTON      FOG       39  39 100 E3        30.21R VSB 1/4
FRANKFORT      FOG       37  35  92 CALM      30.18R VSB 1/4
$$

KYZ054-064>069-076>088-106>120-201200-
SOUTHEAST KENTUCKY

CITY           SKY/WX    TMP DP  RH WIND       PRES   REMARKS
JACKSON        CLEAR     45  41  86 CALM      30.20R
LONDON         CLEAR     36  33  89 CALM      30.19R
SOMERSET       CLEAR     36  36 100 CALM      30.22R
MIDDLESBORO    FOG       38  38 100 CALM      30.23R VSB 1/4
MONTICELLO     FOG       32  32 100 VRB5      30.21R VSB 1/4 WCI  27
$$





USA.gov is the U.S. government's official web portal to all federal, state and local government web resources and services.